Change the Weather History Date:

Friday, March 22, 2013

  Actual Average Record
Temperature  
Mean Temperature 22 °F 38 °F  
Max Temperature 25 °F 46 °F 85 °F (1938)
Min Temperature 19 °F 30 °F 9 °F (1965)
Degree Days  
Heating Degree Days 43 27  
Month to date heating degree days 684  
Since 1 July heating degree days 5563  
Cooling Degree Days 0 0  
Month to date cooling degree days 0  
Year to date cooling degree days 0  
Moisture  
Dew Point 16 °F    
Average Humidity 80    
Maximum Humidity 93    
Minimum Humidity 63    
Precipitation  
Precipitation 0.00 in 0.11 in 1.60 in (1916)
Month to date precipitation 2.11  
Year to date precipitation 7.34  
Sea Level Pressure  
Sea Level Pressure 29.84 in    
Wind  
Wind Speed 15 mph (West)    
Max Wind Speed 20 mph    
Max Gust Speed 30 mph    
Visibility 5 miles    
Events Snow    
T = Trace of Precipitation, MM = Missing Value Source: NWS Daily Summary

Daily Weather History Graph

Daily Weather History Graph

Search for Another Location

Airport or City:

Trip Planner

Search our weather history database for the weather conditions in past years. The results will help you decide how hot, cold, wet, or windy it might be!

Date:

Astronomy

Mar. 22, 2013 Rise Set
Actual Time 7:15 AM EDT 7:29 PM EDT
Civil Twilight 6:47 AM EDT 7:56 PM EDT
Nautical Twilight 6:16 AM EDT 8:28 PM EDT
Astronomical Twilight 5:43 AM EDT 9:01 PM EDT
Moon 2:54 PM EDT (3/22) 4:14 AM EDT (3/22)
Length of Visible Light 13h 09m
Length of Day
12h 14m
Waxing Gibbous, 77% of the Moon is Illuminated
Mar 22
Waxing Gibbous
Mar 27
Full
Apr 3
Last Quarter
Apr 10
New
Apr 18
First Quarter

Hourly Weather History & Observations

Time (EDT) Temp. Windchill Dew Point Humidity Pressure Visibility Wind Dir Wind Speed Gust Speed Precip Events Conditions
12:02 AM 19.4 °F 5.0 °F 15.8 °F 86% 29.76 in 1.0 mi West 16.1 mph 23.0 mph 0.00 in Snow Light Snow
12:22 AM 19.4 °F 5.5 °F 15.8 °F 86% 29.75 in 2.0 mi West 15.0 mph - 0.00 in Snow Light Snow
12:37 AM 19.4 °F 5.0 °F 15.8 °F 86% 29.75 in 3.0 mi West 16.1 mph 27.6 mph 0.00 in Snow Light Snow
12:54 AM 19.9 °F 4.8 °F 16.0 °F 85% 29.85 in 5.0 mi West 18.4 mph 24.2 mph 0.00 in Snow Light Snow
1:06 AM 19.4 °F 5.0 °F 15.8 °F 86% 29.74 in 1.8 mi West 16.1 mph 29.9 mph 0.00 in Snow Light Snow
1:14 AM 19.4 °F 4.5 °F 15.8 °F 86% 29.74 in 2.5 mi West 17.3 mph 28.8 mph 0.00 in Snow Light Snow
1:21 AM 19.4 °F 4.5 °F 15.8 °F 86% 29.74 in 3.0 mi West 17.3 mph 25.3 mph 0.00 in Snow Light Snow
1:33 AM 19.4 °F 4.5 °F 15.8 °F 86% 29.75 in 5.0 mi West 17.3 mph 27.6 mph 0.00 in Snow Light Snow
1:54 AM 19.9 °F 4.8 °F 16.0 °F 85% 29.85 in 3.0 mi West 18.4 mph 26.5 mph 0.00 in Snow Light Snow
2:02 AM 19.4 °F 5.0 °F 15.8 °F 86% 29.75 in 1.8 mi West 16.1 mph 26.5 mph 0.00 in Snow Light Snow
2:31 AM 19.4 °F 4.1 °F 17.6 °F 93% 29.75 in 2.0 mi West 18.4 mph 26.5 mph 0.00 in Snow Light Snow
2:51 AM 19.4 °F 4.1 °F 15.8 °F 86% 29.75 in 1.8 mi West 18.4 mph 29.9 mph 0.00 in Snow Light Snow
2:54 AM 19.9 °F 6.2 °F 16.0 °F 85% 29.85 in 1.8 mi West 15.0 mph 29.9 mph 0.00 in Snow Light Snow
3:03 AM 19.4 °F 4.1 °F 15.8 °F 86% 29.74 in 2.5 mi West 18.4 mph 26.5 mph 0.00 in Snow Light Snow
3:10 AM 19.4 °F 4.1 °F 15.8 °F 86% 29.74 in 4.0 mi West 18.4 mph 28.8 mph 0.00 in Snow Light Snow
3:23 AM 19.4 °F 5.0 °F 15.8 °F 86% 29.74 in 2.0 mi West 16.1 mph 26.5 mph 0.00 in Snow Light Snow
3:31 AM 19.4 °F 6.0 °F 15.8 °F 86% 29.74 in 1.8 mi West 13.8 mph 25.3 mph 0.00 in Snow Light Snow
3:42 AM 19.4 °F 5.5 °F 17.6 °F 93% 29.74 in 2.0 mi West 15.0 mph - 0.00 in Snow Light Snow
3:54 AM 19.9 °F 5.7 °F 16.0 °F 85% 29.84 in 3.0 mi West 16.1 mph 24.2 mph 0.00 in Snow Light Snow
4:26 AM 19.4 °F 3.6 °F 15.8 °F 86% 29.74 in 2.5 mi West 19.6 mph 27.6 mph 0.00 in Snow Light Snow
4:39 AM 19.4 °F 5.0 °F 15.8 °F 86% 29.74 in 4.0 mi West 16.1 mph 27.6 mph 0.00 in Snow Light Snow
4:54 AM 19.9 °F 5.2 °F 16.0 °F 85% 29.84 in 8.0 mi West 17.3 mph 24.2 mph 0.00 in   Overcast
5:12 AM 19.4 °F 6.0 °F 15.8 °F 86% 29.74 in 1.8 mi West 13.8 mph 25.3 mph 0.00 in Snow Light Snow
5:42 AM 19.4 °F 5.0 °F 15.8 °F 86% 29.75 in 2.0 mi West 16.1 mph 24.2 mph 0.00 in Snow Light Snow
5:54 AM 19.9 °F 6.2 °F 16.0 °F 85% 29.86 in 2.5 mi West 15.0 mph 26.5 mph 0.00 in Snow Light Snow
6:08 AM 19.4 °F 6.0 °F 15.8 °F 86% 29.75 in 4.0 mi West 13.8 mph 21.9 mph 0.00 in Snow Light Snow
6:15 AM 19.4 °F 5.5 °F 15.8 °F 86% 29.76 in 5.0 mi West 15.0 mph 21.9 mph 0.00 in Snow Light Snow
6:54 AM 19.9 °F 7.3 °F 15.1 °F 81% 29.87 in 4.0 mi West 12.7 mph 26.5 mph 0.00 in Snow Light Snow
7:54 AM 19.9 °F 4.8 °F 14.0 °F 78% 29.89 in 7.0 mi West 18.4 mph 29.9 mph 0.00 in   Overcast
8:54 AM 19.9 °F 6.2 °F 14.0 °F 78% 29.91 in 7.0 mi WNW 15.0 mph - 0.00 in Snow Light Snow
9:54 AM 21.0 °F 7.1 °F 14.0 °F 74% 29.92 in 5.0 mi West 16.1 mph 24.2 mph 0.00 in Snow Light Snow
10:54 AM 21.9 °F 8.2 °F 15.1 °F 75% 29.92 in 5.0 mi WNW 16.1 mph 24.2 mph 0.00 in Snow Light Snow
11:54 AM 21.9 °F 9.2 °F 15.1 °F 75% 29.93 in 8.0 mi West 13.8 mph 20.7 mph 0.00 in Snow Light Snow
12:54 PM 23.0 °F 11.7 °F 16.0 °F 74% 29.93 in 3.0 mi West 11.5 mph 21.9 mph 0.00 in Snow Light Snow
1:02 PM 23.0 °F 11.1 °F 15.8 °F 74% 29.83 in 2.5 mi WSW 12.7 mph - 0.00 in Snow Light Snow
1:19 PM 23.0 °F 11.7 °F 17.6 °F 80% 29.83 in 3.0 mi West 11.5 mph - 0.00 in Snow Light Snow
1:33 PM 21.2 °F 8.3 °F 17.6 °F 86% 29.83 in 2.5 mi West 13.8 mph - 0.00 in Snow Light Snow
1:47 PM 23.0 °F 10.1 °F 15.8 °F 74% 29.83 in 3.0 mi West 15.0 mph 21.9 mph 0.00 in Snow Light Snow
1:54 PM 23.0 °F 10.1 °F 16.0 °F 74% 29.93 in 4.0 mi West 15.0 mph 23.0 mph 0.00 in Snow Light Snow
2:15 PM 23.0 °F 10.1 °F 17.6 °F 80% 29.83 in 2.0 mi WSW 15.0 mph - 0.00 in Snow Light Snow
2:24 PM 23.0 °F 10.1 °F 15.8 °F 74% 29.83 in 5.0 mi West 15.0 mph - 0.00 in Snow Light Snow
2:54 PM 24.1 °F 12.5 °F 17.1 °F 75% 29.93 in 6.0 mi West 12.7 mph 21.9 mph 0.00 in Snow Light Snow
3:54 PM 24.1 °F 11.0 °F 16.0 °F 71% 29.94 in 5.0 mi West 16.1 mph 21.9 mph 0.00 in Snow Light Snow
4:54 PM 25.0 °F 11.3 °F 14.0 °F 63% 29.95 in 10.0 mi West 18.4 mph 24.2 mph 0.00 in   Overcast
5:54 PM 25.0 °F 14.8 °F 15.1 °F 66% 29.96 in 10.0 mi West 10.4 mph 19.6 mph N/A   Overcast
6:54 PM 25.0 °F 14.8 °F 15.1 °F 66% 29.97 in 10.0 mi West 10.4 mph 17.3 mph N/A   Overcast
7:54 PM 25.0 °F 14.8 °F 15.1 °F 66% 29.98 in 10.0 mi West 10.4 mph - N/A   Overcast
8:36 PM 24.8 °F 16.9 °F 15.8 °F 69% 29.90 in 10.0 mi WNW 6.9 mph - N/A   Scattered Clouds
8:54 PM 23.0 °F 15.8 °F 15.1 °F 72% 30.00 in 10.0 mi WNW 5.8 mph - N/A   Partly Cloudy
9:54 PM 21.9 °F 15.7 °F 15.1 °F 75% 30.01 in 10.0 mi WNW 4.6 mph - N/A   Clear
10:54 PM 21.9 °F - 15.1 °F 75% 30.01 in 10.0 mi Calm Calm - N/A   Overcast
11:54 PM 23.0 °F 18.4 °F 16.0 °F 74% 30.01 in 10.0 mi WSW 3.5 mph - N/A   Overcast